Location: Pinon Hills
(34.4429°N, 117.6403°W)
Time: 05:11:00
(UTC-07:00)

Amateur Radio Satellites - All Passes

Search period start: 29 May 2015 04:41
Search period end: 30 May 2015 04:41
Location: Pinon Hills, 34.4429°N, 117.6403°W

Satellite Date Start Highest point End Downlink Frequencies (MHz)
Time Altitude Azimuth
Gurwin Techsat 1B 29 May 04:48:31 04:51:31 15° 294° (WNW) 04:54:15 435.225
AIST 2 29 May 04:56:05 04:59:06 19° 249° (WSW) 05:01:57 435.215
AO-7 29 May 04:57:20 05:05:44 77° 105° (ESE) 05:14:07 29.400- 29.500
VERMONT LUNAR 29 May 05:18:14 05:21:23 55° 19° (NNE) 05:24:31 437.305
MOZHAYETS 4 29 May 05:24:02 05:28:11 33° 263° (W) 05:32:18
CUBESAT XI-V 29 May 05:33:19 05:36:36 20° 70° (ENE) 05:40:03 437.345
ISS 29 May 05:36:54 05:40:05 50° 40° (NE) 05:43:16 145.825
JAS-2 29 May 05:43:42 05:47:58 25° 290° (WNW) 05:52:16 435.910
Cosmos 2491 29 May 05:48:05 05:55:57 36° 73° (ENE) 06:03:55 435.465 / 435.565
PRISM 29 May 05:54:40 05:56:30 13° 68° (ENE) 05:58:33 437.425
HORYU 2 29 May 06:05:11 06:05:47 10° 294° (WNW) 06:06:06 437.375
M-CUBED/EXP-1 PRIME 29 May 06:07:07 06:07:59 11° 65° (ENE) 06:09:04 437.505
STRAND 1 29 May 06:12:41 06:16:38 24° 69° (ENE) 06:20:44 437.568
AUBIESAT-1 29 May 06:12:59 06:13:45 11° 65° (ENE) 06:14:45 437.475
PHONESAT 2.4 29 May 06:16:10 06:19:31 46° 16° (NNE) 06:22:52 2401.200-2431.200
CUTE-I 29 May 06:25:55 06:30:29 29° 96° (E) 06:35:09 437.470
RS-15 29 May 06:32:50 06:36:34 13° 101° (E) 06:41:26 29.354- 29.394
YUBILEINY 29 May 06:34:20 06:41:52 35° 87° (E) 06:49:34 435.215
Cubesat XI-IV 29 May 06:46:51 06:52:01 47° 99° (E) 06:57:12 437.490
AO-7 29 May 06:51:43 06:57:48 22° 301° (WNW) 07:03:32 29.400- 29.500
VERMONT LUNAR 29 May 06:55:45 06:58:26 24° 213° (SSW) 07:01:05 437.305
CUBESAT XI-V 29 May 07:09:44 07:13:52 32° 264° (W) 07:17:59 437.345
ISS 29 May 07:14:57 07:16:12 12° 232° (SW) 07:17:20 145.825
PRISM 29 May 07:27:48 07:31:39 40° 261° (W) 07:35:30 437.425
M-CUBED/EXP-1 PRIME 29 May 07:38:24 07:42:34 53° 254° (WSW) 07:46:26 437.505
BRITE-PL 29 May 07:42:55 07:46:02 16° 88° (E) 07:49:20 437.365/2234.400
AUBIESAT-1 29 May 07:44:09 07:48:16 52° 255° (WSW) 07:52:05 437.475
Cosmos 2491 29 May 07:44:44 07:52:56 43° 271° (W) 08:00:56 435.465 / 435.565
STRAND 1 29 May 07:51:07 07:55:42 33° 263° (W) 08:00:16 437.568
PHONESAT 2.4 29 May 07:54:22 07:57:36 37° 211° (SSW) 08:00:49 2401.200-2431.200
AIST 1 29 May 08:04:13 08:08:34 63° 266° (W) 08:12:55
CUTE-I 29 May 08:05:52 08:10:32 30° 290° (WNW) 08:15:07 437.470
Cosmos 2504 29 May 08:12:45 08:13:19 10° 82° (E) 08:14:41 435.465 / 435.565
DOVE 4 29 May 08:21:29 08:23:39 13° 88° (E) 08:26:03 437.250
Cubesat XI-IV 29 May 08:28:01 08:31:48 19° 293° (WNW) 08:35:24 437.490
PCSat 29 May 08:28:40 08:30:45 12° 46° (NE) 08:33:07 145.827
YUBILEINY 29 May 08:30:14 08:38:32 44° 284° (WNW) 08:46:43 435.215
HO-68 29 May 08:34:41 08:40:24 26° 94° (E) 08:46:19 435.675
RS-15 29 May 08:36:39 08:47:28 77° 116° (ESE) 08:58:33 29.354- 29.394
GOMX 1 29 May 09:08:46 09:14:04 74° 101° (E) 09:19:00 467.674
CINEMA 3 29 May 09:16:18 09:19:55 23° 93° (E) 09:23:31 145.822/145.860
BRITE-PL 29 May 09:19:33 09:25:02 56° 286° (WNW) 09:30:09 437.365/2234.400
CANX-2 29 May 09:25:09 09:29:22 75° 102° (ESE) 09:33:34 2200.000
CUTE 1.7 + AOD 2 29 May 09:28:17 09:32:30 73° 100° (E) 09:36:41 437.475
ZACube-1 29 May 09:41:53 09:43:17 12° 90° (E) 09:44:56 437.345
Oscar 11 29 May 09:46:25 09:50:01 26° 96° (E) 09:53:41 145.826/435.025
SEEDS 29 May 09:46:44 09:50:55 82° 283° (WNW) 09:55:06 437.485
CUBEBUG 2 29 May 09:50:04 09:53:41 26° 95° (E) 09:57:17 437.445
ANTELSAT 29 May 09:50:54 09:54:26 22° 71° (ENE) 09:58:04 437.575/2403.000
COMPASS 1 29 May 09:55:42 09:59:52 80° 283° (WNW) 10:04:00 437.405
JUGNU 29 May 09:56:59 10:00:45 17° 173° (S) 10:04:34 437.505
DOVE 4 29 May 09:57:00 10:01:54 53° 285° (WNW) 10:06:29 437.250
Cosmos 2504 29 May 09:57:28 10:05:51 77° 95° (E) 10:13:40 435.465 / 435.565
AAUSAT CUBESAT 2 29 May 10:05:33 10:09:41 71° 283° (WNW) 10:13:48 437.432
PCSat 29 May 10:09:34 10:15:01 89° 250° (WSW) 10:20:26 145.827
QB50P1 29 May 10:14:12 10:16:45 16° 69° (ENE) 10:19:28 145.935-145.965
DELFI C3 29 May 10:15:09 10:18:56 41° 98° (E) 10:22:45 145.870
POLYITAN 1 29 May 10:17:24 10:20:14 18° 70° (ENE) 10:23:13 437.675
TIGRISAT 29 May 10:21:24 10:25:52 46° 75° (ENE) 10:30:20 435.000
HO-68 29 May 10:21:34 10:28:25 50° 290° (WNW) 10:35:12 435.675
UWE-3 29 May 10:31:14 10:35:32 66° 100° (E) 10:39:43 435.000/436.395/437.385
FUNcube-1 29 May 10:34:05 10:38:15 52° 99° (E) 10:42:20 145.935
UNISAT 6 29 May 10:42:47 10:47:30 85° 77° (ENE) 10:52:09 437.425
NANOSAT C BR1 29 May 10:43:06 10:46:56 34° 73° (ENE) 10:50:50 145.865
AISAT 29 May 10:46:50 10:49:32 16° 92° (E) 10:52:26 437.250
HUMSAT D 29 May 10:48:05 10:51:47 32° 97° (E) 10:55:29 437.325/437.525
GOMX 1 29 May 10:49:32 10:51:30 12° 296° (WNW) 10:53:08 467.674
RS-15 29 May 10:51:51 11:01:09 30° 320° (NW) 11:10:24 29.354- 29.394
QB50P2 29 May 10:52:52 10:56:58 46° 74° (ENE) 11:01:07 145.880/145.840
CINEMA 3 29 May 10:53:13 10:57:07 26° 289° (WNW) 11:00:46 145.822/145.860
SO-50 29 May 11:00:17 11:04:17 24° 50° (NE) 11:08:19 436.795
DUCHIFAT 1 29 May 11:04:00 11:08:12 61° 76° (ENE) 11:12:26 145.980
POPSAT HIP 1 29 May 11:04:18 11:08:31 63° 76° (ENE) 11:12:48 437.405
50 SAT 29 May 11:06:55 11:10:14 28° 96° (E) 11:13:35 437.505
UKube-1 29 May 11:11:46 11:16:04 60° 101° (E) 11:20:21 .
BUGSAT 1 29 May 11:14:55 11:18:57 54° 75° (ENE) 11:23:04 437.445
ZACube-1 29 May 11:15:54 11:19:59 44° 286° (WNW) 11:23:58 437.345
SRMSAT 29 May 11:19:30 11:23:00 16° 171° (S) 11:26:32 437.500
Oscar 11 29 May 11:22:46 11:26:05 21° 289° (WNW) 11:29:17 145.826/435.025
DX 1 29 May 11:24:29 11:28:54 87° 287° (WNW) 11:33:18 434.975-435.025
CUBEBUG 2 29 May 11:26:52 11:30:16 22° 290° (WNW) 11:33:29 437.445
ANTELSAT 29 May 11:26:54 11:31:03 30° 263° (W) 11:35:09 437.575/2403.000
CUBEBUG 1 29 May 11:39:52 11:43:49 32° 97° (E) 11:47:49 437.445
JUGNU 29 May 11:45:02 11:49:07 19° 183° (S) 11:53:10 437.505
QB50P1 29 May 11:48:22 11:52:20 36° 262° (W) 11:56:18 145.935-145.965
VELOX 1 29 May 11:49:11 11:53:41 86° 100° (E) 11:58:09 145.980
DELFI C3 29 May 11:51:57 11:53:44 12° 291° (WNW) 11:55:19 145.870
POLYITAN 1 29 May 11:52:01 11:55:55 32° 263° (W) 11:59:48 437.675
DANDE 29 May 11:54:06 11:59:34 25° 85° (E) 12:06:03 436.750
Cosmos 2504 29 May 11:54:36 12:00:02 18° 292° (WNW) 12:04:49 435.465 / 435.565
TIGRISAT 29 May 12:00:14 12:02:53 14° 269° (W) 12:05:16 435.000
ESTCUBE 1 29 May 12:02:45 12:07:18 71° 101° (ESE) 12:11:49 437.505/2401.250
CUSAT 1 29 May 12:05:25 12:12:06 40° 89° (E) 12:19:42 437.405
SPROUT 29 May 12:08:58 12:11:46 17° 93° (E) 12:14:42 437.525
FUNcube-1 29 May 12:12:52 12:14:08 11° 293° (WNW) 12:15:09 145.935
NANOSAT C BR1 29 May 12:20:07 12:22:53 16° 267° (W) 12:25:31 145.865
TISAT 1 29 May 12:21:34 12:24:15 17° 93° (E) 12:27:04 437.305
AISAT 29 May 12:22:08 12:26:18 37° 287° (WNW) 12:30:24 437.250
HUMSAT D 29 May 12:24:39 12:27:18 16° 290° (WNW) 12:29:47 437.325/437.525
QB50P2 29 May 12:31:26 12:33:11 12° 270° (W) 12:34:39 145.880/145.840
SO-50 29 May 12:40:23 12:44:57 37° 247° (WSW) 12:49:22 436.795
50 SAT 29 May 12:42:16 12:44:45 16° 290° (WNW) 12:47:05 437.505
UKube-1 29 May 12:50:52 12:51:45 10° 294° (WNW) 12:52:20 .
GONETS M04 29 May 12:58:25 13:07:08 68° 93° (E) 13:15:54
SRMSAT 29 May 13:07:25 13:11:30 19° 181° (S) 13:15:34 437.500
Oscar 19 29 May 13:09:52 13:14:49 47° 73° (ENE) 13:19:49 437.125/150
RS-15 29 May 13:15:38 13:19:08 12° 354° (N) 13:22:30 29.354- 29.394
CUBEBUG 1 29 May 13:16:45 13:19:59 19° 290° (WNW) 13:23:05 437.445
ITAMSAT 1 29 May 13:31:29 13:35:15 21° 68° (ENE) 13:39:10 435.822/435.867
JUGNU 29 May 13:34:38 13:37:27 13° 192° (SSW) 13:40:09 437.505
DANDE 29 May 13:35:02 13:42:07 61° 283° (WNW) 13:50:29 436.750
SPROUT 29 May 13:44:03 13:47:58 32° 287° (WNW) 13:51:47 437.525
CUSAT 1 29 May 13:47:51 13:54:47 40° 288° (WNW) 14:02:24 437.405
TISAT 1 29 May 13:56:17 14:00:08 32° 287° (WNW) 14:03:54 437.305
AO-7 29 May 14:05:00 14:08:38 14° 55° (NE) 14:12:51 29.400- 29.500
Cosmos 2499 29 May 14:19:29 14:26:51 40° 90° (E) 14:33:51 435.465 / 435.565
Gurwin Techsat 1B 29 May 14:24:11 14:29:26 68° 75° (ENE) 14:34:44 435.225
ITUPSAT 1 29 May 14:31:58 14:36:47 76° 102° (ESE) 14:41:34 437.325
BEESAT 29 May 14:37:48 14:42:36 89° 106° (ESE) 14:47:23 436.000
SWISSCUBE 29 May 14:46:49 14:51:35 67° 284° (WNW) 14:56:19 437.505
Oscar 19 29 May 14:51:01 14:54:28 17° 268° (W) 14:57:40 437.125/150
STARS 29 May 14:55:00 14:56:28 12° 90° (E) 14:58:12 437.465
SRMSAT 29 May 14:56:45 15:00:00 15° 191° (S) 15:03:10 437.500
GONETS M04 29 May 14:58:02 15:04:49 23° 292° (WNW) 15:11:13
ITAMSAT 1 29 May 15:09:42 15:14:31 39° 262° (W) 15:19:20 435.822/435.867
HORYU 2 29 May 15:20:02 15:24:08 37° 73° (ENE) 15:28:17 437.375
DANDE 29 May 15:25:53 15:27:33 10° 304° (NW) 15:28:33 436.750
O/OREOS (USA 219) 29 May 15:28:01 15:32:29 59° 292° (WNW) 15:36:56 437.305
RS-15 29 May 15:30:39 15:38:14 20° 30° (NNE) 15:46:30 29.354- 29.394
KKS-1 29 May 15:31:55 15:36:20 58° 100° (E) 15:40:43 437.445
JAS-2 29 May 15:50:09 15:56:53 81° 76° (ENE) 16:02:51 435.910
AO-7 29 May 15:52:03 16:00:16 75° 71° (ENE) 16:08:36 29.400- 29.500
Gurwin Techsat 1B 29 May 16:07:54 16:10:00 12° 271° (W) 16:11:42 435.225
BEESAT 3 29 May 16:11:06 16:13:21 15° 110° (ESE) 16:15:46 437.485
Cosmos 2499 29 May 16:12:49 16:20:03 34° 285° (WNW) 16:26:43 435.465 / 435.565
STARS 29 May 16:28:59 16:33:16 49° 286° (WNW) 16:37:30 437.465
YUBILEINY 29 May 16:51:13 16:54:16 13° 61° (ENE) 16:58:05 435.215
HORYU 2 29 May 16:58:02 17:00:56 16° 267° (W) 17:03:40 437.375
BEESAT 2 29 May 17:02:07 17:06:02 48° 115° (ESE) 17:10:02 435.950
KKS-1 29 May 17:10:57 17:12:31 11° 293° (WNW) 17:13:48 437.445
AIST 2 29 May 17:12:42 17:15:14 16° 110° (ESE) 17:17:58 435.215
MOZHAYETS 4 29 May 17:22:07 17:26:41 74° 101° (ESE) 17:31:16
JAS-2 29 May 17:39:38 17:42:28 12° 269° (W) 17:44:44 435.910
RS-15 29 May 17:42:03 17:53:39 66° 57° (ENE) 18:05:45 29.354- 29.394
CUTE-I 29 May 17:44:21 17:49:02 34° 71° (ENE) 17:53:49 437.470
BEESAT 3 29 May 17:47:13 17:51:02 38° 304° (WNW) 17:54:53 437.485
AO-7 29 May 17:48:09 17:53:56 19° 268° (W) 17:59:15 29.400- 29.500
Cubesat XI-IV 29 May 18:05:21 18:10:30 55° 74° (ENE) 18:15:43 437.490
BEESAT 2 29 May 18:42:06 18:44:27 14° 312° (NW) 18:46:38 435.950
YUBILEINY 29 May 18:44:06 18:52:50 79° 83° (E) 19:01:33 435.215
Cosmos 2491 29 May 18:44:21 18:52:31 47° 90° (E) 19:00:52 435.465 / 435.565
AIST 2 29 May 18:49:33 18:53:32 38° 304° (WNW) 18:57:34 435.215
BRITE-PL 29 May 18:50:52 18:53:03 13° 64° (ENE) 18:55:35 437.365/2234.400
HO-68 29 May 19:02:17 19:05:34 14° 59° (ENE) 19:09:17 435.675
CUBESAT XI-V 29 May 19:09:17 19:14:00 81° 101° (E) 19:18:44 437.345
PRISM 29 May 19:13:29 19:17:16 33° 98° (E) 19:21:06 437.425
DOVE 4 29 May 19:24:32 19:25:46 11° 65° (ENE) 19:27:22 437.250
CUTE-I 29 May 19:24:47 19:29:10 25° 265° (W) 19:33:27 437.470
Cubesat XI-IV 29 May 19:47:54 19:51:02 15° 269° (W) 19:53:52 437.490
RS-15 29 May 19:55:29 20:05:35 33° 253° (WSW) 20:15:33 29.354- 29.394
Cosmos 2504 29 May 19:55:55 20:00:28 18° 69° (ENE) 20:05:26 435.465 / 435.565
STRAND 1 29 May 20:04:34 20:09:43 75° 285° (WNW) 20:14:51 437.568
GOMX 1 29 May 20:12:23 20:17:23 54° 75° (ENE) 20:22:41 467.674
CINEMA 3 29 May 20:14:42 20:17:52 18° 68° (ENE) 20:21:14 145.822/145.860
CANX-2 29 May 20:14:43 20:18:31 33° 73° (ENE) 20:22:22 2200.000
CUTE 1.7 + AOD 2 29 May 20:17:48 20:21:35 32° 73° (ENE) 20:25:24 437.475
BRITE-PL 29 May 20:25:47 20:30:52 72° 259° (W) 20:36:22 437.365/2234.400
AIST 1 29 May 20:29:44 20:33:58 89° 261° (W) 20:38:17
SEEDS 29 May 20:35:12 20:39:11 42° 74° (ENE) 20:43:10 437.485
Oscar 11 29 May 20:39:08 20:41:20 14° 69° (ENE) 20:43:44 145.826/435.025
Cosmos 2491 29 May 20:41:49 20:49:38 33° 288° (WNW) 20:57:17 435.465 / 435.565
COMPASS 1 29 May 20:43:21 20:47:17 41° 74° (ENE) 20:51:14 437.405
YUBILEINY 29 May 20:43:22 20:48:48 17° 278° (W) 20:53:40 435.215
HO-68 29 May 20:45:14 20:52:26 86° 75° (ENE) 20:59:40 435.675
CUBEBUG 2 29 May 20:45:15 20:48:16 17° 69° (ENE) 20:51:27 437.445
PRISM 29 May 20:49:48 20:52:29 16° 291° (WNW) 20:55:01 437.425
AAUSAT CUBESAT 2 29 May 20:52:41 20:56:39 45° 75° (ENE) 21:00:39 437.432
DOVE 4 29 May 20:57:43 21:02:50 82° 257° (WSW) 21:08:11 437.250
M-CUBED/EXP-1 PRIME 29 May 20:57:55 21:00:53 31° 291° (WNW) 21:03:53 437.505
DELFI C3 29 May 21:00:14 21:02:41 16° 70° (ENE) 21:05:17 145.870
AUBIESAT-1 29 May 21:02:59 21:05:58 31° 291° (WNW) 21:09:00 437.475
UWE-3 29 May 21:24:29 21:28:44 36° 73° (ENE) 21:33:01 435.000/436.395/437.385
FUNcube-1 29 May 21:26:16 21:30:09 28° 72° (ENE) 21:34:05 145.935
HUMSAT D 29 May 21:37:23 21:39:58 16° 70° (ENE) 21:42:43 437.325/437.525
Cosmos 2504 29 May 21:47:26 21:54:31 63° 267° (W) 22:01:39 435.465 / 435.565
CINEMA 3 29 May 21:49:54 21:54:42 47° 262° (W) 21:59:33 145.822/145.860
50 SAT 29 May 21:50:26 21:51:25 11° 69° (ENE) 21:52:38 437.505
CANX-2 29 May 21:51:47 21:54:34 16° 268° (W) 21:57:12 2200.000
GOMX 1 29 May 21:52:43 21:55:56 16° 271° (W) 21:58:59 467.674
CUTE 1.7 + AOD 2 29 May 21:54:44 21:57:36 17° 267° (W) 22:00:18 437.475
UKube-1 29 May 22:03:20 22:07:08 32° 72° (ENE) 22:11:01 .
ZACube-1 29 May 22:07:24 22:12:01 87° 78° (ENE) 22:16:36 437.345
Oscar 11 29 May 22:13:05 22:17:12 42° 262° (W) 22:21:18 145.826/435.025
SEEDS 29 May 22:13:15 22:15:13 13° 269° (W) 22:16:57 437.485
ISS 29 May 22:13:19 22:16:32 68° 319° (NW) 22:19:46 145.825
DX 1 29 May 22:16:28 22:20:40 50° 74° (ENE) 22:24:55 434.975-435.025
TIGRISAT 29 May 22:19:14 22:20:32 11° 90° (E) 22:22:07 435.000
CUBEBUG 2 29 May 22:20:07 22:24:39 42° 262° (W) 22:29:10 437.445
COMPASS 1 29 May 22:21:16 22:23:12 13° 269° (W) 22:24:54 437.405
AAUSAT CUBESAT 2 29 May 22:31:09 22:32:34 11° 270° (W) 22:33:43 437.432
CUBEBUG 1 29 May 22:33:30 22:36:20 18° 69° (ENE) 22:39:22 437.445
DELFI C3 29 May 22:33:59 22:37:35 30° 263° (W) 22:41:08 145.870
HO-68 29 May 22:37:33 22:41:07 13° 271° (W) 22:44:07 435.675
UNISAT 6 29 May 22:39:25 22:42:44 22° 94° (E) 22:46:06 437.425
DANDE 29 May 22:42:07 22:45:38 15° 59° (ENE) 22:49:11 436.750
VELOX 1 29 May 22:43:11 22:47:26 48° 74° (ENE) 22:51:44 145.980
CUSAT 1 29 May 22:50:45 22:55:19 20° 64° (ENE) 22:59:20 437.405
DUCHIFAT 1 29 May 22:54:14 22:56:03 13° 91° (E) 22:58:05 145.980
POPSAT HIP 1 29 May 22:54:51 22:56:52 13° 91° (E) 22:59:07 437.405
ESTCUBE 1 29 May 22:58:58 23:03:09 41° 73° (ENE) 23:07:23 437.505/2401.250
UWE-3 29 May 23:02:01 23:05:22 19° 267° (W) 23:08:33 435.000/436.395/437.385
FUNcube-1 29 May 23:02:47 23:06:28 23° 266° (W) 23:10:01 145.935
BUGSAT 1 29 May 23:03:29 23:04:16 11° 90° (E) 23:05:22 437.445
PCSat 29 May 23:06:08 23:09:48 20° 107° (ESE) 23:13:42 145.827
HUMSAT D 29 May 23:11:27 23:15:27 36° 262° (W) 23:19:26 437.325/437.525
GONETS M04 29 May 23:14:08 23:21:10 27° 70° (ENE) 23:28:26
AISAT 29 May 23:15:50 23:20:15 66° 259° (W) 23:24:43 437.250
50 SAT 29 May 23:21:54 23:25:46 46° 261° (W) 23:29:37 437.505
ANTELSAT 29 May 23:22:05 23:26:25 74° 101° (ESE) 23:30:40 437.575/2403.000
VERMONT LUNAR 29 May 23:30:27 23:33:17 28° 148° (SSE) 23:36:08 437.305
QB50P1 29 May 23:36:49 23:40:55 45° 99° (E) 23:44:59 145.935-145.965
UKube-1 29 May 23:40:21 23:43:22 18° 266° (W) 23:46:14 .
POLYITAN 1 29 May 23:40:37 23:44:48 51° 100° (E) 23:48:56 437.675
ISS 29 May 23:53:10 23:53:30 10° 336° (NNW) 23:53:44 145.825
TIGRISAT 29 May 23:53:29 23:57:39 47° 286° (WNW) 00:01:44 435.000
DX 1 29 May 23:55:43 23:57:16 11° 269° (W) 23:58:31 434.975-435.025
O/OREOS (USA 219) 30 May 00:04:26 00:06:05 12° 56° (NE) 00:07:58 437.305
NANOSAT C BR1 30 May 00:06:46 00:11:03 76° 284° (WNW) 00:15:16 145.865
CUBEBUG 1 30 May 00:08:31 00:12:29 33° 263° (W) 00:16:27 437.445
UNISAT 6 30 May 00:15:54 00:19:31 25° 289° (WNW) 00:22:59 437.425
QB50P2 30 May 00:17:24 00:21:35 54° 285° (WNW) 00:25:43 145.880/145.840
VELOX 1 30 May 00:22:20 00:24:19 12° 269° (W) 00:26:03 145.980
DANDE 30 May 00:23:01 00:30:20 80° 264° (W) 00:35:48 436.750
DUCHIFAT 1 30 May 00:28:05 00:32:08 42° 286° (WNW) 00:36:06 145.980
POPSAT HIP 1 30 May 00:28:58 00:32:59 40° 286° (WNW) 00:36:56 437.405
CUSAT 1 30 May 00:32:25 00:38:38 46° 269° (W) 00:43:20 437.405
SPROUT 30 May 00:33:58 00:38:16 68° 259° (W) 00:42:36 437.525
BUGSAT 1 30 May 00:35:58 00:40:07 50° 285° (WNW) 00:44:12 437.445
ESTCUBE 1 30 May 00:37:40 00:40:16 15° 268° (W) 00:42:39 437.505/2401.250
PHONESAT 2.4 30 May 00:39:00 00:41:58 26° 147° (SSE) 00:44:59 2401.200-2431.200
TISAT 1 30 May 00:44:11 00:48:25 72° 258° (WSW) 00:52:41 437.305
PCSat 30 May 00:47:42 00:52:54 46° 300° (WNW) 00:58:08 145.827
VERMONT LUNAR 30 May 01:07:12 01:10:22 51° 341° (NNW) 01:13:32 437.305
GONETS M04 30 May 01:10:01 01:18:33 56° 269° (W) 01:26:54
SO-50 30 May 01:12:41 01:15:17 15° 109° (ESE) 01:18:09 436.795
QB50P1 30 May 01:14:22 01:16:25 13° 292° (WNW) 01:18:15 145.935-145.965
POLYITAN 1 30 May 01:18:45 01:20:18 11° 293° (WNW) 01:21:35 437.675
Oscar 19 30 May 01:25:48 01:29:41 22° 94° (E) 01:33:41 437.125/150
BEESAT 2 30 May 01:26:25 01:27:53 12° 46° (NE) 01:29:31 435.950
ITUPSAT 1 30 May 01:35:13 01:39:52 57° 74° (ENE) 01:44:33 437.325
BEESAT 30 May 01:40:38 01:45:20 68° 76° (ENE) 01:50:05 436.000
O/OREOS (USA 219) 30 May 01:41:34 01:45:57 56° 253° (WSW) 01:50:18 437.305
SWISSCUBE 30 May 01:49:39 01:54:24 87° 264° (W) 01:59:10 437.505
Cosmos 2499 30 May 02:06:43 02:13:44 66° 81° (E) 02:20:59 435.465 / 435.565
BEESAT 3 30 May 02:09:01 02:12:50 39° 56° (ENE) 02:16:37 437.485
PHONESAT 2.4 30 May 02:16:30 02:19:57 59° 340° (NNW) 02:23:24 2401.200-2431.200
KKS-1 30 May 02:26:42 02:30:42 34° 72° (ENE) 02:34:46 437.445
Gurwin Techsat 1B 30 May 02:44:20 02:49:10 36° 97° (E) 02:54:03 435.225
VERMONT LUNAR 30 May 02:45:09 02:47:57 26° 358° (N) 02:50:43 437.305
SO-50 30 May 02:50:55 02:55:26 48° 303° (WNW) 03:00:07 436.795
BEESAT 2 30 May 03:02:23 03:06:25 60° 244° (WSW) 03:10:22 435.950
Oscar 19 30 May 03:04:27 03:09:09 36° 289° (WNW) 03:13:45 437.125/150
AIST 2 30 May 03:14:25 03:18:27 44° 57° (ENE) 03:22:26 435.215
ITUPSAT 1 30 May 03:16:23 03:18:12 12° 270° (W) 03:19:42 437.325
STARS 30 May 03:21:51 03:26:18 90° 79° (ENE) 03:30:47 437.465
ITAMSAT 1 30 May 03:25:40 03:30:55 83° 285° (WNW) 03:36:09 435.822/435.867
BEESAT 3 30 May 03:48:18 03:50:29 14° 250° (WSW) 03:52:30 437.485
PHONESAT 2.4 30 May 03:55:21 03:58:26 29° 357° (N) 04:01:32 2401.200-2431.200
AO-7 30 May 03:58:23 04:05:27 31° 96° (E) 04:12:43 29.400- 29.500
Cosmos 2499 30 May 04:01:56 04:06:19 17° 275° (W) 04:10:21 435.465 / 435.565
KKS-1 30 May 04:04:17 04:07:27 18° 267° (W) 04:10:28 437.445
MOZHAYETS 4 30 May 04:20:30 04:24:51 45° 74° (ENE) 04:29:12
VERMONT LUNAR 30 May 04:22:32 04:25:34 39° 14° (NNE) 04:28:36 437.305
Gurwin Techsat 1B 30 May 04:24:44 04:28:59 24° 291° (WNW) 04:33:06 435.225
